Location: Stilling
(56.0622°N, 9.9882°E)
Time: 23:16:09
(UTC+00:00)

Cosmos 2344 - Pass Details

Date: 13 July 2020
Orbit: 1249 x 2994 km, 63.3° (Epoch: 14 August)

Event Time Altitude Azimuth Distance (km) Brightness Sun altitude
Rises 23:05:07 0° 245° (WSW) 4,192 6.1 -12.2°
Reaches altitude 10° 23:07:46 10° 248° (WSW) 3,231 5.5 -12.2°
Maximum altitude 23:15:16 71° 332° (NNW) 1,423 4.0 -12.3°
Drops below altitude 10° 23:24:21 10° 58° (ENE) 3,868 6.5 -12.3°
Sets 23:27:51 0° 60° (ENE) 5,075 7.2 -12.3°
